(294892) = 2004 CW101 = 2008 DC12

Discovered at Kitt Peak on 2008-02-26 by Spacewatch.

Orbit

Orbit type: Main Belt

Note: WebGL enabled browser required.

epoch2024-03-31.0
epoch JD2460400.5
perihelion date2023-10-17.63596
perihelion JD2460235.13596
argument of perihelion (°)6.02680
ascending node (°)82.52499
inclination (°)2.77526
eccentricity0.0956676
perihelion distance (AU)2.2950167
Tisserand w.r.t. Jupiter3.4
ΔV w.r.t. Earth (km/sec)9.5
semimajor axis (AU)2.5378020
mean anomaly (°)40.31422
mean daily motion (°/day)0.24379080
aphelion distance (AU)2.781
period (years)4.04
P-vector [x]0.02539552
P-vector [y]0.91515214
P-vector [z]0.40230787
Q-vector [x]-0.99852410
Q-vector [y]0.00389535
Q-vector [z]0.05417046
absolute magnitude17.57
phase slope0.15
uncertainty0
referenceMPEC 2024-C107
observations used268
oppositions15
arc length (days)10727
first opposition used1994
last opposition used2024
residual rms (arc-secs)0.81
perturbers coarse indicatorM-v
perturbers precise indicator003Ek
first observation date used1994-09-27.0
last observation date used2024-02-09.0
computer nameMPCLINUX
JD of orbit computation2456966.739891
perihelion JD uncertainty (days)1.9886E-04
argument of perihelion uncertainty (°)1.5575E-04
ascending node uncertainty (°)1.4921E-04
inclination uncertainty (°)4.0721E-06
eccentricity uncertainty 4.3700E-08
perihelion distance uncertainty (AU)1.0864E-07
Minimum Orbit Intersection Distances (in AU)
for orbit epoch: 2460200.5, reference: E2024-CA7
Mercury1.98694
Venus1.57519
Earth1.31011
Mars0.6903
Jupiter2.36981
Saturn6.75825
Uranus15.941
Neptune27.3707

Observations

283 total observations over interval: 1994 09 27.38833 – 2024 02 09.315362
These data are available for download (format description).

Date (UT) J2000 RA J2000 Dec Magn Location Ref
1994 09 27.38833 01 02 06.29 +01 49 45.4   691 – Steward Observatory, Kitt Peak-Spacewatch MPS 242290
1994 09 27.41170 01 02 05.05 +01 49 38.4 21.0 V 691 – Steward Observatory, Kitt Peak-Spacewatch MPS 242290
1994 09 27.43505 01 02 03.90 +01 49 31.1   691 – Steward Observatory, Kitt Peak-Spacewatch MPS 242290
1994 10 06.31081 00 54 20.29 +01 02 33.2   691 – Steward Observatory, Kitt Peak-Spacewatch MPS 243611
1994 10 06.33421 00 54 18.92 +01 02 26.4 20.1 V 691 – Steward Observatory, Kitt Peak-Spacewatch MPS 243611
1994 10 06.35758 00 54 17.58 +01 02 14.5   691 – Steward Observatory, Kitt Peak-Spacewatch MPS 243611
2004 02 12.31742 10 04 06.27 +16 20 48.4 20.8 V 691 – Steward Observatory, Kitt Peak-Spacewatch MPS 100219
2004 02 12.34873 10 04 04.44 +16 20 59.2 20.9 V 691 – Steward Observatory, Kitt Peak-Spacewatch MPS 100219
2004 02 12.37744 10 04 02.79 +16 21 09.0 20.6 V 691 – Steward Observatory, Kitt Peak-Spacewatch MPS 100219
2004 02 19.29636 09 57 31.12 +16 59 59.2 20.2   704 – Lincoln Laboratory ETS, New Mexico MPS 100219
2004 02 19.31001 09 57 30.30 +17 00 04.8 20.7   704 – Lincoln Laboratory ETS, New Mexico MPS 100219
2004 02 19.33967 09 57 28.60 +17 00 12.7 20.2   704 – Lincoln Laboratory ETS, New Mexico MPS 100219
2004 02 19.35220 09 57 27.81 +17 00 17.5 20.0   704 – Lincoln Laboratory ETS, New Mexico MPS 100219
2006 08 27.43185 00 15 18.49 -03 06 59.6 21.3 V 691 – Steward Observatory, Kitt Peak-Spacewatch MPS 243611
2006 08 27.45218 00 15 17.78 -03 07 05.3 21.0 V 691 – Steward Observatory, Kitt Peak-Spacewatch MPS 243611
2006 08 27.46956 00 15 17.19 -03 07 10.0 21.5 V 691 – Steward Observatory, Kitt Peak-Spacewatch MPS 243611
2008 01 10.42487 10 01 00.08 +15 40 59.1 21.3 V G96 – Mt. Lemmon Survey MPS 242290
2008 01 10.43034 10 00 59.94 +15 41 00.6 21.0 V G96 – Mt. Lemmon Survey MPS 242290
2008 01 10.43587 10 00 59.83 +15 41 01.6 20.9 V G96 – Mt. Lemmon Survey MPS 242290
2008 01 10.44138 10 00 59.68 +15 41 03.3 20.9 V G96 – Mt. Lemmon Survey MPS 242290
2008 01 19.44684 09 56 23.95 +16 22 15.2 20.5 V 691 – Steward Observatory, Kitt Peak-Spacewatch MPS 242290
2008 01 19.46496 09 56 23.23 +16 22 20.6 20.5 V 691 – Steward Observatory, Kitt Peak-Spacewatch MPS 242290
2008 01 19.48333 09 56 22.50 +16 22 26.0 20.7 V 691 – Steward Observatory, Kitt Peak-Spacewatch MPS 242290
2008 02 09.18331 09 39 01.62 +18 18 05.1 20.2 V 691 – Steward Observatory, Kitt Peak-Spacewatch MPS 242290
2008 02 09.20095 09 39 00.57 +18 18 10.9 20.2 V 691 – Steward Observatory, Kitt Peak-Spacewatch MPS 242290
2008 02 09.21862 09 38 59.53 +18 18 17.1 20.2 V 691 – Steward Observatory, Kitt Peak-Spacewatch MPS 242290
2008 02 26.17603 09 23 27.77 +19 37 25.8   691 – Steward Observatory, Kitt Peak-Spacewatch MPS 239684
2008 02 26.19433 09 23 26.86 +19 37 29.9   691 – Steward Observatory, Kitt Peak-Spacewatch MPS 239684
2008 02 26.21263 09 23 25.93 +19 37 33.8   691 – Steward Observatory, Kitt Peak-Spacewatch MPS 239684
2008 02 28.15563 09 21 54.01 +19 44 12.1 20.4 V 691 – Steward Observatory, Kitt Peak-Spacewatch MPS 239684
2008 02 28.17914 09 21 52.89 +19 44 17.5 20.3 V 691 – Steward Observatory, Kitt Peak-Spacewatch MPS 239684
2008 02 28.20290 09 21 51.70 +19 44 21.9 20.4 V 691 – Steward Observatory, Kitt Peak-Spacewatch MPS 239684
2008 03 08.17655 09 15 55.13 +20 07 10.7   691 – Steward Observatory, Kitt Peak-Spacewatch MPS 242290
2008 03 08.18987 09 15 54.68 +20 07 12.1   691 – Steward Observatory, Kitt Peak-Spacewatch MPS 242290
2008 03 08.20062 09 15 54.29 +20 07 12.9   691 – Steward Observatory, Kitt Peak-Spacewatch MPS 242290
2008 03 09.19563 09 15 22.64 +20 08 55.7 21.1 V G96 – Mt. Lemmon Survey MPS 242290
2008 03 09.20013 09 15 22.46 +20 08 56.4 21.1 V G96 – Mt. Lemmon Survey MPS 242290
2008 03 09.20465 09 15 22.32 +20 08 57.0 21.1 V G96 – Mt. Lemmon Survey MPS 242290
2008 03 09.20930 09 15 22.14 +20 08 57.2 21.1 V G96 – Mt. Lemmon Survey MPS 242290
2008 03 12.11820 09 13 59.48 +20 13 01.2 20.9 V 691 – Steward Observatory, Kitt Peak-Spacewatch MPS 254591
2008 03 12.13248 09 13 59.09 +20 13 02.2 21.2 V 691 – Steward Observatory, Kitt Peak-Spacewatch MPS 254591
2008 03 12.14328 09 13 58.79 +20 13 03.2 20.8 V 691 – Steward Observatory, Kitt Peak-Spacewatch MPS 254591
2010 09 03.35927 23 49 38.28 -06 02 41.2 20.9 V G96 – Mt. Lemmon Survey MPS 346380
2010 09 03.36517 23 49 37.99 -06 02 43.1 20.8 V G96 – Mt. Lemmon Survey MPS 346380
2010 09 03.37108 23 49 37.70 -06 02 45.4 20.7 V G96 – Mt. Lemmon Survey MPS 346380
2010 09 03.37690 23 49 37.48 -06 02 47.2 20.3 V G96 – Mt. Lemmon Survey MPS 346380
2010 09 04.34621 23 48 52.38 -06 08 19.7 21.0 V G96 – Mt. Lemmon Survey MPS 347171
2010 09 04.35260 23 48 52.02 -06 08 22.2 21.4 V G96 – Mt. Lemmon Survey MPS 347171
2010 09 04.35900 23 48 51.73 -06 08 24.1 21.0 V G96 – Mt. Lemmon Survey MPS 347171
2010 09 04.36544 23 48 51.40 -06 08 26.3 20.6 V G96 – Mt. Lemmon Survey MPS 347171
2012 01 06.48459 09 34 33.950 +17 39 05.58 20.6 z F51 – Pan-STARRS 1, Haleakala MPS 407578
2012 01 06.49612 09 34 33.627 +17 39 08.97 20.6 z F51 – Pan-STARRS 1, Haleakala MPS 407578
2012 01 21.31758 09 24 49.53 +18 51 33.8 20.8 V 703 – Catalina Sky Survey MPS 410063
2012 01 21.32277 09 24 49.28 +18 51 36.5 21.1 V 703 – Catalina Sky Survey MPS 410063
2012 01 21.32795 09 24 48.99 +18 51 35.7 21.5 V 703 – Catalina Sky Survey MPS 410063
2012 01 21.33309 09 24 48.67 +18 51 38.6 21.1 V 703 – Catalina Sky Survey MPS 410063
2012 01 27.18726 09 19 37.76 +19 23 42.0 20.4 V 691 – Steward Observatory, Kitt Peak-Spacewatch MPS 410063
2012 01 27.20570 09 19 36.67 +19 23 48.3 20.6 V 691 – Steward Observatory, Kitt Peak-Spacewatch MPS 410063
2012 01 27.22356 09 19 35.70 +19 23 54.0 20.5 V 691 – Steward Observatory, Kitt Peak-Spacewatch MPS 410063
2012 01 31.17517 09 15 50.65 +19 45 24.8   691 – Steward Observatory, Kitt Peak-Spacewatch MPS 411491
2012 01 31.19295 09 15 49.53 +19 45 30.9   691 – Steward Observatory, Kitt Peak-Spacewatch MPS 411491
2012 01 31.21074 09 15 48.52 +19 45 36.8   691 – Steward Observatory, Kitt Peak-Spacewatch MPS 411491
2012 02 01.54924 09 14 30.103 +19 52 47.94 21.0 g F51 – Pan-STARRS 1, Haleakala MPS 411491
2012 02 01.56214 09 14 29.339 +19 52 51.78 20.8 g F51 – Pan-STARRS 1, Haleakala MPS 411491
2012 02 12.18288 09 04 11.28 +20 45 00.6 20.5 V G96 – Mt. Lemmon Survey MPS 412915
2012 02 12.18982 09 04 10.84 +20 45 02.8 20.8 V G96 – Mt. Lemmon Survey MPS 412915
2012 02 12.19683 09 04 10.45 +20 45 04.7 20.4 V G96 – Mt. Lemmon Survey MPS 412915
2012 02 12.20385 09 04 09.98 +20 45 06.6 20.1 V G96 – Mt. Lemmon Survey MPS 412915
2012 02 13.31322 09 03 07.793 +20 49 55.65 22.1 w F51 – Pan-STARRS 1, Haleakala MPS 412915
2012 02 13.32777 09 03 06.953 +20 49 59.53 22.2 w F51 – Pan-STARRS 1, Haleakala MPS 412915
2012 02 13.34234 09 03 06.107 +20 50 03.35 22.3 w F51 – Pan-STARRS 1, Haleakala MPS 412915
2012 02 13.35696 09 03 05.257 +20 50 07.21 22.2 w F51 – Pan-STARRS 1, Haleakala MPS 412915
2012 02 26.27873 08 52 30.839 +21 33 46.74 20.8 i F51 – Pan-STARRS 1, Haleakala MPS 417143
2012 02 26.29071 08 52 30.311 +21 33 48.36 20.8 i F51 – Pan-STARRS 1, Haleakala MPS 417143
2013 07 01.31362 16 00 59.733 -20 04 45.20 21.5 w F51 – Pan-STARRS 1, Haleakala MPS 471749
2013 07 01.32699 16 00 59.299 -20 04 44.85 21.7 w F51 – Pan-STARRS 1, Haleakala MPS 471749
2013 07 01.34034 16 00 58.889 -20 04 44.37 21.7 w F51 – Pan-STARRS 1, Haleakala MPS 471749
2013 07 01.35367 16 00 58.460 -20 04 44.25 21.6 w F51 – Pan-STARRS 1, Haleakala MPS 471749
2014 08 20.47989 23 37 02.477 -07 11 36.80 21.1 w F51 – Pan-STARRS 1, Haleakala MPS 527881
2014 08 20.49207 23 37 02.017 -07 11 40.68 21.2 w F51 – Pan-STARRS 1, Haleakala MPS 527881
2014 08 20.50422 23 37 01.528 -07 11 44.38 21.2 w F51 – Pan-STARRS 1, Haleakala MPS 527881
2014 08 20.51641 23 37 01.061 -07 11 48.17 21.0 w F51 – Pan-STARRS 1, Haleakala MPS 527881
2014 08 22.47712 23 35 46.312 -07 22 01.96 21.0 w F51 – Pan-STARRS 1, Haleakala MPS 529482
2014 08 22.48936 23 35 45.813 -07 22 05.85 21.2 w F51 – Pan-STARRS 1, Haleakala MPS 529482
2014 08 22.50164 23 35 45.292 -07 22 09.64 21.0 w F51 – Pan-STARRS 1, Haleakala MPS 529482
2014 08 23.48991 23 35 05.843 -07 27 27.02 21.1 w F51 – Pan-STARRS 1, Haleakala MPS 529482
